Dewpoint
47 44 38 45 44 44 41 41 40 41 47 42 41 40 40 41 40 39 50 54 55 57 57 57 58 58 59 59 60 59 59 59 59 59 60 57 53 50 48 45 44 44 44 45
41 37 39 45 46 45 44 41 40 45 46 43 43 41 41 41 40 40 41 53 54 56 53 51 49 48 48 48 49 49 51 54 59 60 56 52 50 47 43 38 37 37 38 38
36 38 42 40 43 44 44 42 41 41 44 45 43 41 42 42 41 40 43 51 56 54 50 48 45 44 42 41 42 42 44 50 53 52 51 49 49 46 39 33 32 34 34 35
39 41 40 39 38 43 40 45 43 43 41 37 43 35 40 41 41 39 43 54 52 49 48 45 43 42 40 38 37 37 38 44 47 48 48 47 43 38 33 32 32 32 32 32
36 39 37 37 37 44 42 45 43 43 40 40 41 37 38 41 41 39 49 48 48 49 47 44 41 38 35 36 34 34 34 36 37 41 42 40 36 34 31 32 33 33 32 31
36 40 39 37 41 43 45 42 40 40 38 32 38 37 36 40 41 40 47 45 43 39 38 37 35 34 33 33 33 35 35 33 34 33 32 31 31 31 34 35 35 34 33 31
34 34 40 42 40 43 40 38 30 29 30 30 38 37 37 36 39 45 43 41 38 37 33 32 31 30 31 31 34 37 38 38 40 40 40 39 39 39 38 37 37 35 34 33
26 26 35 40 37 38 38 37 31 26 28 31 35 33 34 35 41 44 43 38 34 33 33 33 33 34 36 39 40 40 40 39 40 40 39 39 39 38 38 37 35 33 28 25
25 27 38 40 41 38 38 36 37 30 25 26 32 35 35 37 38 39 37 35 33 33 34 34 36 39 40 40 40 39 39 39 39 38 38 37 36 34 33 29 25 24 24 22
35 27 36 38 40 40 37 38 33 32 19 22 30 30 31 34 36 38 37 32 32 34 35 38 40 40 39 39 39 39 39 37 36 32 28 25 24 23 23 23 23 23 23 23
36 34 33 36 35 35 36 35 36 34 29 22 26 28 24 33 35 36 35 32 34 36 38 39 39 38 37 35 35 34 31 26 24 24 24 23 22 21 21 21 22 22 22 23
37 33 30 33 35 37 37 36 36 29 29 28 26 25 27 29 35 36 33 32 36 38 39 38 37 35 34 32 29 25 23 23 23 23 22 21 20 20 20 20 20 22 21 22
37 33 26 27 30 35 34 35 35 34 32 27 26 25 28 34 34 35 33 35 39 39 38 37 35 34 33 30 24 21 22 22 22 21 20 19 19 19 19 19 20 20 21 21
40 34 30 20 28 31 31 33 34 33 28 27 28 24 27 32 33 35 36 38 38 38 37 36 33 31 25 21 19 19 20 21 21 21 20 20 20 19 19 20 20 20 20 20
37 31 32 30 30 31 31 31 32 32 31 27 28 27 28 28 33 37 38 38 38 38 37 35 31 24 20 19 18 18 18 18 18 19 19 19 20 19 20 19 19 19 19 18
37 30 31 27 27 29 29 33 31 33 33 32 33 33 33 29 34 39 38 38 38 37 37 35 25 20 18 17 17 17 17 18 18 17 18 19 19 19 19 18 17 17 17 17
34 27 29 24 26 24 17 27 30 32 33 32 31 31 29 30 32 38 39 39 38 38 38 32 22 19 18 17 17 17 17 19 18 18 18 18 18 17 16 16 15 15 14 14
32 30 31 24 15 16 22 23 32 32 33 34 34 31 30 29 34 38 39 39 38 39 37 30 20 18 19 19 19 18 19 18 18 17 16 16 16 16 15 14 14 13 13 13
35 33 27 18 20 18 20 22 25 31 30 34 34 34 28 31 33 34 40 39 39 39 36 25 21 19 19 18 18 18 18 18 16 15 15 15 16 15 15 14 13 13 13 12
33 34 30 19 14 7 19 23 27 28 22 23 26 34 29 30 28 30 37 39 39 38 31 21 21 21 21 18 18 17 17 16 14 14 14 15 16 15 13 13 13 14 13 10
28 29 24 20 11 16 25 24 27 16 18 22 23 26 30 28 30 30 37 36 36 28 22 21 21 22 21 18 18 17 16 14 14 14 14 14 13 14 13 13 15 13 12 12
25 21 17 13 18 15 23 25 21 24 22 21 22 24 27 30 31 33 31 27 23 21 21 20 19 20 20 18 16 16 14 14 14 14 14 14 15 14 13 14 15 15 13 14
23 24 22 21 22 25 24 26 28 25 23 24 25 26 30 30 29 27 26 23 21 20 18 18 18 17 17 17 17 15 14 13 13 13 11 11 14 16 16 14 15 13 14 14
18 18 22 21 25 25 24 21 26 25 24 24 27 27 29 28 27 26 24 22 20 19 17 17 17 16 16 16 18 15 14 14 10 8 10 12 11 12 13 15 15 13 11 11
16 18 16 18 20 21 22 20 21 22 24 24 26 27 28 28 27 25 23 21 19 18 17 17 16 16 15 14 13 12 12 10 9 9 11 13 12 10 11 12 11 12 12 11
18 16 14 11 17 22 19 17 21 21 23 23 25 26 27 28 26 23 21 20 19 18 17 15 14 13 13 11 9 6 7 7 8 10 11 10 10 8 9 8 7 9 10 12
Lifted_Index
2 2 2 2 1 1 1 1 1 1 1 1 1 0 0 0 0 0 -1 -2 -2 -2 -2 -2 -2 -2 -2 -1 -1 -1 -0 0 0 1 1 1 1 1 1 2 2 3 4 5
2 2 2 2 2 1 1 1 1 1 1 1 1 0 0 0 1 1 -0 -1 -2 -2 -2 -2 -2 -2 -2 -2 -1 -1 -1 -0 -0 0 0 1 1 1 1 2 2 4 6 8
2 2 3 3 2 1 1 1 1 2 2 2 1 1 1 1 1 1 1 -0 -1 -2 -2 -2 -2 -2 -2 -2 -2 -2 -1 -1 -1 -1 -0 0 0 1 1 2 4 7 10 12
2 3 3 3 2 2 1 1 1 2 1 1 1 1 1 1 1 1 1 0 -1 -1 -2 -2 -2 -2 -2 -2 -2 -1 -1 -1 -1 -1 -1 -0 0 1 3 5 8 12 13 14
3 4 4 4 3 2 1 1 1 1 1 1 1 1 1 1 1 1 1 1 -0 -1 -1 -2 -2 -2 -1 -1 -1 -1 -1 -1 -0 -0 0 1 2 4 7 9 11 13 13 12
3 3 4 4 4 3 2 1 1 1 1 1 1 1 1 1 1 2 2 1 0 -0 -1 -1 -1 -1 -1 -0 -0 0 0 0 2 3 4 5 6 8 10 11 11 11 10 10
3 3 4 4 4 4 2 2 1 1 0 1 1 1 1 1 1 1 1 1 0 -0 -0 -1 -1 -0 0 1 1 1 2 3 5 8 9 9 9 10 10 10 10 10 10 10
4 3 3 3 4 3 3 2 1 1 1 1 1 2 2 1 1 1 1 1 1 0 0 0 0 1 1 2 3 4 5 6 8 10 10 10 10 9 9 10 11 12 13 13
5 4 3 3 3 3 3 3 2 2 1 1 2 2 2 2 1 1 1 1 1 1 1 2 2 2 3 5 5 6 8 8 9 9 9 9 10 10 11 12 13 15 17 17
4 4 3 3 2 2 3 3 3 3 2 1 2 2 2 2 2 2 2 1 1 2 2 2 3 4 6 7 8 8 8 9 9 9 9 10 12 13 14 15 17 18 19 19
3 3 3 3 3 2 2 2 2 2 2 2 2 2 2 2 2 2 2 1 1 2 2 3 4 5 7 8 8 8 8 8 9 10 11 13 15 16 17 18 19 19 19 19
2 2 3 4 4 3 3 2 2 2 3 2 2 2 3 3 3 2 2 1 1 2 3 4 5 6 7 8 8 8 8 8 10 12 14 16 17 18 18 19 19 18 18 19
1 2 2 3 4 4 4 3 2 2 3 3 2 3 3 3 3 3 2 2 2 3 4 4 5 6 7 7 7 7 8 9 11 14 16 17 18 18 18 18 18 18 18 19
1 1 2 3 4 4 4 4 4 3 3 3 3 3 3 3 3 3 4 4 4 4 4 5 6 6 6 6 6 7 9 11 13 15 16 17 17 17 17 17 17 18 18 19
1 1 2 2 3 4 4 5 5 5 5 4 4 4 4 4 4 4 4 4 4 4 5 5 6 6 6 6 7 8 10 12 14 15 15 16 17 17 17 17 17 18 18 18
2 1 2 2 3 3 4 4 5 5 5 5 4 4 4 4 4 4 4 4 4 5 5 5 6 6 6 6 7 8 10 13 14 14 15 16 16 16 16 16 17 17 17 18
2 2 2 2 2 3 3 4 4 5 4 4 4 4 4 4 4 4 4 4 5 5 5 5 5 6 6 7 7 8 11 13 13 14 15 15 16 15 15 16 16 16 17 17
2 2 2 2 2 3 3 3 4 4 4 4 4 4 4 4 4 4 4 4 5 5 5 5 5 6 6 7 7 9 11 12 13 13 14 15 15 15 15 15 15 16 17 17
3 3 2 2 3 3 3 3 4 4 4 4 4 4 4 5 5 5 5 5 6 6 6 5 5 5 6 7 8 9 10 11 12 13 14 14 15 14 14 15 15 16 17 18
2 2 3 3 3 3 3 3 4 4 4 4 5 5 5 5 5 5 5 5 6 6 6 5 5 5 5 6 8 9 9 10 11 12 13 14 14 14 14 15 16 17 18 18
2 2 2 3 3 3 3 3 4 4 4 4 5 5 5 5 5 5 5 5 5 5 5 5 5 4 4 6 7 8 9 10 11 13 14 14 14 14 15 15 16 17 18 18
2 2 2 3 3 3 3 3 3 4 4 4 5 5 5 5 5 5 5 5 5 5 5 4 4 3 4 6 8 8 9 11 12 13 14 14 14 14 15 16 16 17 18 18
2 2 2 3 3 2 3 3 3 4 4 5 5 5 5 5 5 5 5 5 5 5 4 3 3 3 4 7 8 9 10 12 13 14 14 14 14 14 15 16 16 17 18 18
4 3 3 2 2 2 2 3 3 4 5 5 6 6 5 5 4 4 4 4 4 4 4 3 3 4 5 8 9 10 11 13 14 14 13 13 13 14 15 16 17 17 18 18
5 4 3 3 3 3 3 3 3 4 4 5 5 6 5 4 4 3 4 4 4 5 5 4 4 5 7 8 9 11 13 14 14 13 13 13 13 14 14 16 17 18 19 19
6 5 4 3 4 4 4 4 4 3 4 4 5 5 5 4 3 3 3 4 4 5 5 5 6 7 8 8 10 12 13 14 14 13 13 13 13 13 14 15 17 19 20 20